Weather History for Clarinda, IA

Change the Weather History Date:

Monday, May 27, 2013

  Actual Average Record
Temperature  
Mean Temperature 64 °F -  
Max Temperature 71 °F 75 °F 91 °F (2012)
Min Temperature 57 °F 53 °F 46 °F (2003)
Degree Days  
Heating Degree Days 1    
Growing Degree Days 14 (Base 50)    
Moisture  
Dew Point 60 °F    
Average Humidity 86    
Maximum Humidity 100    
Minimum Humidity 73    
Precipitation  
Precipitation 2.48 in - - ()
Sea Level Pressure  
Sea Level Pressure 29.80 in    
Wind  
Wind Speed 8 mph (ESE)    
Max Wind Speed 28 mph    
Max Gust Speed 41 mph    
Visibility 10 miles    
Events Rain    
Averages and records for this station are not official NWS values.
T = Trace of Precipitation, MM = Missing Value Source: NWS Daily Summary

Daily Weather History Graph

Daily Weather History Graph

Search for Another Location

Airport:

Trip Planner

Search our weather history database for the weather conditions in past years. The results will help you decide how hot, cold, wet, or windy it might be!

Date:

Astronomy

May. 27, 2013 Rise Set
Actual Time 5:53 AM CDT 8:41 PM CDT
Civil Twilight 5:21 AM CDT 9:13 PM CDT
Nautical Twilight 4:40 AM CDT 9:54 PM CDT
Astronomical Twilight 3:54 AM CDT 10:41 PM CDT
Moon 11:21 PM CDT (5/27) 8:32 AM CDT (5/27)
Length of Visible Light 15h 52m
Length of Day
14h 47m
Waning Gibbous, 91% of the Moon is Illuminated
May 27
Waning Gibbous
May 31
Last Quarter
Jun 8
New
Jun 16
First Quarter
Jun 23
Full

Hourly Weather History & Observations

Time (CDT) Temp. Dew Point Humidity Pressure Visibility Wind Dir Wind Speed Gust Speed Precip Events Conditions
12:15 AM 62.6 °F 57.2 °F 82% 29.91 in 10.0 mi SSE 8.1 mph - N/A   Mostly Cloudy
12:35 AM 62.6 °F 57.2 °F 82% 29.91 in 10.0 mi SSE 3.5 mph - N/A   Scattered Clouds
12:55 AM 62.6 °F 59.0 °F 88% 29.90 in 10.0 mi SSE 3.5 mph - N/A   Mostly Cloudy
1:15 AM 62.6 °F 59.0 °F 88% 29.91 in 10.0 mi SSE 9.2 mph - N/A   Overcast
1:35 AM 62.6 °F 59.0 °F 88% 29.91 in 10.0 mi South 5.8 mph - N/A   Overcast
1:55 AM 64.4 °F 60.8 °F 88% 29.90 in 10.0 mi South 8.1 mph - N/A   Scattered Clouds
2:15 AM 64.4 °F 60.8 °F 88% 29.89 in 10.0 mi South 10.4 mph - N/A   Clear
2:35 AM 66.2 °F 60.8 °F 83% 29.88 in 10.0 mi South 10.4 mph 17.3 mph N/A   Clear
2:55 AM 66.2 °F 60.8 °F 83% 29.87 in 10.0 mi South 12.7 mph - N/A   Clear
3:35 AM 66.2 °F 60.8 °F 83% 29.84 in 10.0 mi SSE 10.4 mph 20.7 mph N/A   Clear
3:55 AM 66.2 °F 60.8 °F 83% 29.87 in 10.0 mi SSE 4.6 mph - N/A   Scattered Clouds
4:15 AM 66.2 °F 60.8 °F 83% 29.87 in 10.0 mi East 5.8 mph - N/A   Scattered Clouds
4:35 AM 62.6 °F 55.4 °F 77% 29.91 in 10.0 mi NNE 27.6 mph 41.4 mph N/A   Mostly Cloudy
4:55 AM 60.8 °F 57.2 °F 88% 29.94 in 1.2 mi North 8.1 mph 16.1 mph 0.43 in Rain Heavy Rain
5:15 AM 57.2 °F 57.2 °F 100% 29.92 in 4.0 mi East 9.2 mph 16.1 mph 0.55 in Rain Heavy Rain
5:35 AM 57.2 °F 57.2 °F 100% 29.92 in 10.0 mi East 6.9 mph - 0.69 in Rain Heavy Rain
5:55 AM 57.2 °F 57.2 °F 100% 29.93 in 10.0 mi ESE 8.1 mph 16.1 mph 0.76 in Rain Rain
6:15 AM 57.2 °F 57.2 °F 100% 29.93 in 10.0 mi East 8.1 mph - 0.09 in Rain Rain
6:35 AM 57.2 °F 57.2 °F 100% 29.91 in 10.0 mi East 11.5 mph 24.2 mph 0.23 in Rain Heavy Rain
6:55 AM 57.2 °F 57.2 °F 100% 29.88 in 10.0 mi East 13.8 mph 25.3 mph 0.32 in Rain Rain
7:15 AM 57.2 °F 57.2 °F 100% 29.89 in 10.0 mi ESE 12.7 mph 18.4 mph 0.06 in Rain Rain
7:35 AM 59.0 °F 57.2 °F 94% 29.89 in 10.0 mi ESE 12.7 mph 20.7 mph 0.11 in Rain Rain
7:55 AM 59.0 °F 57.2 °F 94% 29.86 in 10.0 mi East 16.1 mph 23.0 mph 0.15 in Rain Light Rain
8:15 AM 59.0 °F 57.2 °F 94% 29.82 in 10.0 mi East 11.5 mph 24.2 mph 0.03 in Rain Light Rain
8:35 AM 59.0 °F 57.2 °F 94% 29.87 in 10.0 mi SE 4.6 mph - 0.04 in Rain Light Rain
8:55 AM 59.0 °F 57.2 °F 94% 29.87 in 10.0 mi SSE 10.4 mph - 0.08 in Rain Heavy Rain
9:15 AM 59.0 °F 57.2 °F 94% 29.85 in 10.0 mi SSE 8.1 mph - 0.03 in Rain Rain
9:35 AM 59.0 °F 57.2 °F 94% 29.86 in 10.0 mi SSE 9.2 mph - 0.05 in Rain Light Rain
9:55 AM 59.0 °F 57.2 °F 94% 29.84 in 10.0 mi SE 9.2 mph - 0.06 in Rain Light Rain
10:15 AM 59.0 °F 57.2 °F 94% 29.81 in 10.0 mi SE 13.8 mph 20.7 mph N/A Rain Light Rain
10:35 AM 59.0 °F 57.2 °F 94% 29.78 in 10.0 mi SSE 12.7 mph 25.3 mph 0.01 in   Light Drizzle
10:55 AM 60.8 °F 57.2 °F 88% 29.75 in 10.0 mi SSE 12.7 mph 18.4 mph 0.01 in   Clear
11:15 AM 60.8 °F 57.2 °F 88% 29.71 in 10.0 mi SSE 11.5 mph 17.3 mph N/A   Clear
11:35 AM 60.8 °F 59.0 °F 94% 29.72 in 10.0 mi South 16.1 mph 21.9 mph N/A   Clear
11:55 AM 62.6 °F 59.0 °F 88% 29.70 in 10.0 mi South 17.3 mph - N/A   Clear
12:15 PM 62.6 °F 60.8 °F 94% 29.72 in 10.0 mi South 13.8 mph 18.4 mph N/A   Clear
12:35 PM 64.4 °F 60.8 °F 88% 29.74 in 10.0 mi South 13.8 mph 19.6 mph N/A   Clear
12:55 PM 66.2 °F 60.8 °F 83% 29.79 in 10.0 mi North 6.9 mph - N/A   Scattered Clouds
1:15 PM 66.2 °F 60.8 °F 83% 29.79 in 10.0 mi North 5.8 mph - N/A   Mostly Cloudy
1:35 PM 66.2 °F 62.6 °F 88% 29.79 in 10.0 mi North 10.4 mph - N/A   Scattered Clouds
1:55 PM 69.8 °F 62.6 °F 78% 29.79 in 10.0 mi North 5.8 mph - N/A   Scattered Clouds
2:15 PM 69.8 °F 62.6 °F 78% 29.78 in 10.0 mi NE 6.9 mph - N/A   Clear
2:35 PM 69.8 °F 60.8 °F 73% 29.78 in 10.0 mi Calm Calm - N/A   Scattered Clouds
2:55 PM 71.6 °F 62.6 °F 73% 29.77 in 10.0 mi NE 6.9 mph - N/A   Scattered Clouds
3:15 PM 69.8 °F 62.6 °F 78% 29.76 in 10.0 mi ENE 4.6 mph - N/A   Scattered Clouds
3:35 PM 71.6 °F 62.6 °F 73% 29.75 in 10.0 mi NNE 5.8 mph - N/A   Scattered Clouds
3:55 PM 71.6 °F 62.6 °F 73% 29.75 in 10.0 mi East 5.8 mph - N/A   Scattered Clouds
4:15 PM 71.6 °F 62.6 °F 73% 29.75 in 10.0 mi ESE 3.5 mph - N/A   Scattered Clouds
4:35 PM 71.6 °F 62.6 °F 73% 29.74 in 10.0 mi Calm Calm - N/A   Mostly Cloudy
4:55 PM 71.6 °F 62.6 °F 73% 29.74 in 10.0 mi East 6.9 mph - N/A   Overcast
5:15 PM 71.6 °F 62.6 °F 73% 29.73 in 7.0 mi ENE 5.8 mph - N/A   Mostly Cloudy
5:35 PM 69.8 °F 62.6 °F 78% 29.74 in 10.0 mi East 4.6 mph - N/A   Overcast
5:55 PM 69.8 °F 62.6 °F 78% 29.73 in 10.0 mi ENE 5.8 mph - N/A   Overcast
6:15 PM 69.8 °F 62.6 °F 78% 29.72 in 10.0 mi ENE 3.5 mph - N/A   Overcast
6:35 PM 69.8 °F 62.6 °F 78% 29.71 in 10.0 mi ENE 5.8 mph - N/A   Mostly Cloudy
6:55 PM 69.8 °F 62.6 °F 78% 29.71 in 10.0 mi ENE 6.9 mph - N/A   Overcast
7:15 PM 68.0 °F 62.6 °F 83% 29.72 in 10.0 mi ENE 5.8 mph - N/A   Mostly Cloudy
7:35 PM 68.0 °F 62.6 °F 83% 29.73 in 10.0 mi ENE 6.9 mph - N/A   Overcast
7:55 PM 68.0 °F 62.6 °F 83% 29.72 in 10.0 mi East 6.9 mph - N/A   Overcast
8:15 PM 68.0 °F 62.6 °F 83% 29.71 in 10.0 mi East 8.1 mph - N/A   Overcast
8:35 PM 68.0 °F 60.8 °F 78% 29.70 in 10.0 mi East 9.2 mph - N/A   Mostly Cloudy
8:55 PM 66.2 °F 62.6 °F 88% 29.70 in 10.0 mi East 9.2 mph - N/A   Mostly Cloudy
9:15 PM 66.2 °F 62.6 °F 88% 29.70 in 10.0 mi East 6.9 mph - N/A   Overcast
9:35 PM 66.2 °F 62.6 °F 88% 29.70 in 10.0 mi East 9.2 mph - N/A Rain Light Rain
9:55 PM 66.2 °F 62.6 °F 88% 29.70 in 10.0 mi East 6.9 mph - N/A   Overcast
10:15 PM 66.2 °F 62.6 °F 88% 29.70 in 10.0 mi East 8.1 mph - N/A   Mostly Cloudy
10:35 PM 66.2 °F 62.6 °F 88% 29.71 in 10.0 mi East 4.6 mph - N/A   Mostly Cloudy
10:55 PM 66.2 °F 62.6 °F 88% 29.70 in 10.0 mi ESE 4.6 mph - N/A   Mostly Cloudy
11:15 PM 66.2 °F 62.6 °F 88% 29.69 in 10.0 mi Calm Calm - N/A Rain Light Rain
11:35 PM 66.2 °F 64.4 °F 94% 29.71 in 5.0 mi SW 4.6 mph - 0.06 in Rain Heavy Rain
11:55 PM 62.6 °F 60.8 °F 94% 29.75 in 3.0 mi NW 15.0 mph 24.2 mph 0.67 in Rain Heavy Rain